Location: Angel
(38.7209°N, 82.2693°W)
Time: 15:06:24
(UTC+00:00)

X-37B - Visible Passes

Search period start: 27 November 2022 00:00
Search period end: 07 December 2022 00:00
Orbit: 277 x 277 km, 45.0° (Epoch: 01 November)

Date Brightness Start Highest point End Pass type
(mag) Time Alt. Az. Time Alt. Az. Time Alt. Az.
04 Dec 2.7 23:29:54 10° SSE 23:30:16 11° SSE 23:30:16 11° SSE visible
05 Dec 1.7 23:29:27 10° SSW 23:31:11 22° SSE 23:31:11 22° SSE visible
06 Dec 0.4 23:29:42 10° SW 23:32:02 46° SSE 23:32:02 46° SSE visible
